カタログに戻る

ARIANE 42P DEB

運用中LEO
NORAD 44509·DEBRIS·🇫🇷 France

打ち上げ Aug 10, 1992 から Guiana Space Centre

Loading…

次のパス (今後24時間)

TLE

最新Source: Space-Track

元期: Sep 14, 2026, 13:01 UTC

1 44509U 92052G   26257.54239005  .00002041  00000-0  84106-2 0  9998
2 44509  66.0841  98.9268 0073080 235.3447 124.0668 12.85961127331441

AllMySatでARIANE 42P DEBをリアルタイム追跡

Download on the App Store